This is the latest recevied weather packets stored in our database for station/object PY2CQC-13. If no packets are shown the sender has not sent any weather packets the latest 10 day(s).
| Time | Temp. | Humidity | Pressure | Rain* | Wind** | Luminosity | Snow |
|---|---|---|---|---|---|---|---|
| 1777465924 | 23.33° C | 72% | 1033.8 hPa | - | - | - | - |
| 1777464124 | 23.33° C | 72% | 1033.7 hPa | - | - | - | - |
| 1777462325 | 22.78° C | 72% | 1033.4 hPa | - | - | - | - |
| 1777460530 | 22.78° C | 71% | 1033.2 hPa | - | - | - | - |
| 1777458725 | 22.78° C | 71% | 1033.1 hPa | - | - | - | - |
| 1777456925 | 22.78° C | 71% | 1032.9 hPa | - | - | - | - |
| 1777455124 | 23.33° C | 70% | 1032.3 hPa | - | - | - | - |
| 1777453324 | 23.33° C | 71% | 1031.8 hPa | - | - | - | - |
| 1777451524 | 22.78° C | 74% | 1031.5 hPa | - | - | - | - |
| 1777449725 | 22.22° C | 75% | 1031.4 hPa | - | - | - | - |
| 1777447925 | 22.22° C | 74% | 1031.2 hPa | - | - | - | - |
| 1777446125 | 22.78° C | 75% | 1031.3 hPa | - | - | - | - |
| 1777444325 | 22.78° C | 74% | 1031.4 hPa | - | - | - | - |
| 1777442524 | 22.78° C | 74% | 1031.6 hPa | - | - | - | - |
| 1777440724 | 22.78° C | 74% | 1031.9 hPa | - | - | - | - |
| 1777438924 | 22.78° C | 74% | 1032.4 hPa | - | - | - | - |
| 1777437125 | 23.33° C | 73% | 1033 hPa | - | - | - | - |
| 1777435325 | 23.33° C | 72% | 1032.9 hPa | - | - | - | - |
| 1777433525 | 23.33° C | 73% | 1033.3 hPa | - | - | - | - |
| 1777431725 | 23.89° C | 72% | 1033.8 hPa | - | - | - | - |
| 1777429924 | 23.89° C | 72% | 1033.5 hPa | - | - | - | - |
| 1777428124 | 24.44° C | 72% | 1033.6 hPa | - | - | - | - |
| 1777426324 | 24.44° C | 71% | 1033.7 hPa | - | - | - | - |
| 1777424525 | 24.44° C | 70% | 1033.6 hPa | - | - | - | - |
| 1777422725 | 25° C | 70% | 1033.6 hPa | - | - | - | - |
* Rain since midnight (hover to see other rain measurements)
** Current wind speed in m/s (hover to see current wind gust speed)